Regional Weather Roundup
Issued by NWS Cleveland, OH

Home | Current Version | Previous Version | Graphics & Text | Print | Product List | Glossary On
Versions: 1 2 3 4 5 6 7 8 9 10 11 12 13 14 15 16 17 18 19 20 21 22 23 24 25 26 27 28 29 30 31 32 33 34 35 36 37 38 39 40 41 42 43 44 45 46 47 48 49 50
000
ASUS41 KCLE 091412
RWRCLE
OHIO REGIONAL WEATHER ROUNDUP
NATIONAL WEATHER SERVICE WILMINGTON, OH
900 AM EST TUE FEB 09 2016

NOTE: "FAIR" INDICATES FEW OR NO CLOUDS BELOW 12,000 FEET WITH NO
SIGNIFICANT WEATHER AND/OR OBSTRUCTIONS TO VISIBILITY.

OHZ001>008-015>018-024>027-034-035-043-044-091500-
   NORTHWEST OHIO

CITY           SKY/WX    TMP DP  RH WIND       PRES   REMARKS
DEFIANCE       CLOUDY    28  24  85 W7        29.64R WCI  21
FINDLAY        CLOUDY    27  22  81 W16G28    29.62S WCI  15
TOLEDO EXPRESS LGT SNOW  28  26  92 W14       29.60S FOG     WCI  17
TOLEDO EXEC    LGT SNOW  29  26  89 SW12      29.61S VSB 3/4 WCI  19
LIMA           CLOUDY    25  21  85 W21       29.65R WCI  11
$$

OHZ009>014-019>023-028>033-038-089-091500-
   NORTHEAST OHIO

CITY           SKY/WX    TMP DP  RH WIND       PRES   REMARKS
CLE-HOPKINS    CLOUDY    30  25  81 W13       29.61R WCI  20
CLE-LAKEFRONT  CLOUDY    32  27  81 SW14      29.58S WCI  22
CUY CO. ARPT   CLOUDY    32  30  93 W9        29.58R WCI  24
LORAIN-ELYRIA  CLOUDY    29  24  82 W13       29.60R WCI  19
ASHTABULA      CLOUDY    32  29  88 SW6       29.56R WCI  26
AKRON-CANTON   CLOUDY    30  26  85 W8        29.58R WCI  22
WOOSTER        CLOUDY    28  23  81 W14       29.60R WCI  17
MANSFIELD      CLOUDY    27  24  89 W8G18     29.59R WCI  19
YOUNGSTOWN     CLOUDY    31  25  78 W8        29.56R WCI  23
$$

OHZ042-051>053-060>062-070>072-077>081-091500-
  SOUTHWEST OHIO

CITY           SKY/WX    TMP DP  RH WIND       PRES   REMARKS
CINC-COVINGTON LGT SNOW  21  18  86 W9        29.76R FOG     WCI  11
CINC-LUNKEN    LGT SNOW  21  17  84 SW13      29.80R FOG     WCI   9
HAMILTON       LGT SNOW  22  18  85 W10       29.77R FOG     WCI  11
DAYTON         LGT SNOW  23  19  85 W16       29.70R FOG     WCI  10
WRIGHT-PAT AFB LGT SNOW  23  20  88 SW12      29.70R FOG     WCI  11
DAYTON GENERAL LGT SNOW  21  16  81 W9        29.71R WCI  11
WILMINGTON     LGT SNOW  20  17  88 W17       29.70R FOG     WCI   5
$$

OHZ036-037-039>041-045>050-054>059-063>069-073>076-082>088-091500-
  CENTRAL AND SOUTHEAST OHIO

CITY           SKY/WX    TMP DP  RH WIND       PRES   REMARKS
COLUMBUS       LGT SNOW  23  19  86 SW10      29.68R FOG     WCI  12
OSU AIRPORT    LGT SNOW  24  21  88 SW10      29.66S FOG     WCI  14
BOLTON FIELD   LGT SNOW  21  19  93 SW12      29.68R WCI   9
RICKENBACK AFB LGT SNOW  22  19  91 SW13G18   29.69S WCI   9
NEWARK         LGT SNOW  24  19  81 MISG      29.66R VSB 1
MARION         CLOUDY    27  21  78 W13G20    29.64R HAZE    WCI  16
LANCASTER      LGT SNOW  22  18  85 SW10      29.69R VSB 1   WCI  11
ZANESVILLE     LGT SNOW  24  20  84 W10       29.66R VSB 1   WCI  14
NEW PHILLY     CLOUDY    31  26  82 W6        29.61R WCI  25
$$



USA.gov is the U.S. government's official web portal to all federal, state and local government web resources and services.